Zurück zum Katalog

STARLINK-32081

AktivKommunikationVLEO
NORAD 60348·PAYLOAD·🇺🇸 United States

Gestartet Aug 2, 2024 von Cape Canaveral Space Force Station

Loading…

Nächste Überflüge (nächste 24 Stunden)

TLE

AktuellSource: CelesTrak SupGP

Epoche: Sep 15, 2026, 02:11 UTC

1 60348C 24136V   26258.09145833  .00003677  00000+0  11822-3 0  2580
2 60348  53.1575 274.3880 0001324  77.1080 306.4181 15.31707972    10

Verfolge STARLINK-32081 in Echtzeit mit AllMySat

Download on the App Store